Starlink 1541

operational
NORAD ID: 46052 Int'l Des: 2020-055 Owner: SPXS Country: US Constellation: starlink
LEOCIRCULARSTARLINK_TYPE

Über Starlink 1541

Beschreibung wird geladen...

Live-Position

3D-Globus wird geladen...

Nächste Überflüge

Höhenverlauf

Altitude vs Time

uPlot chart will show altitude changes over time

Zweizeiliger Elementsatz

1 46052U 20055AB 25347.16924665 .00000181 00000-0 31050-4 0 9992
2 46052 53.0555 145.0220 0001209 93.2287 266.8840 15.06387268295960
Epoch: 13. Dez. 2025 • Age: 15 hours

Aktueller Status

Höhe 564.9 km
Geschwindigkeit 7.58 km/s
Subsatellitenpunkt -49.03°S, 6.37°E
Startdatum 7. Aug. 2020
Alter 5.3 years
Typ internet

Technische Details

Klassifizierung Payload
Masse 260.00 kg
Trockenmasse 248.00 kg
Gesamtmasse 260.00 kg
Länge 0.20 m
Durchmesser 2.80 m
Spannweite 9.00 m
Form Box + pan
Hersteller SPXS
Bus-Typ Starlink
Phasenstatus In Orbit
Besitzer/Staat SPXS/US

Große Konstellationen

Loading constellations...